Content
SEND FEEDBACK

Daily
Averages
Monthly
Summary
United States of America

ST. LOUIS, MISSOURI


Home > North America > United States > Missouri
Elevation: 535 feet     Latitude: 38 45N     Longitude: 090 22W

WEATHER
 
SELECT A DAY
Number of Records: 196,649;   Date Range: 1/1/95 - 9/18/14
 
SHARE

PRINT THIS DATA

[ ← Previous Day ]
WEATHER ALMANAC - DECEMBER 22, 2013
[ Next Day → ]
[ °C ]   °F
Weather ElementAverageHighLow
Temperature32.5 °F34 °F (8:54 am)27 °F (11:54 pm)
Dewpoint28.6 °F32 °F (4:54 am)21 °F (10:54 pm)
Humidity85.7 %96 % (4:54 am)75 % (10:54 pm)
Barometer29.92 in30.32 in (11:54 pm)29.66 in (2:11 am)
Wind Speed8.9 mph16.1 mph (2:54 pm)
Wind Gust21.9 mph (8:54 am)
Weather ElementAverage
Visibility8.6 mi
Wind DirectionWSW (238.4 °)

Weather ElementTotal
Precipitation0.02 in
Heating Degree Days34.5 (Base 65)
Averaged from 37 records on December 22, 2013
WEATHER CONDITIONS BREAKOUT
WIND DIRECTION BREAKOUT
WEATHER BY HOUR - DECEMBER 22, 2013
[ °C ]   °F
Local TimeTemperatureDewpointHumidityBarometerVisibilityWind DirectionWind SpeedGust SpeedPrecipitationEventsConditions
12:54 AM33.1 °F30.9 °F92 %29.69 in7.0 miWest (270°)5.8 mph0.00 inRainLight Rain
1:24 AM33.8 °F30.2 °F87 %29.67 in7.0 miWSW (240°)5.8 mph0.00 inOvercast
1:54 AM33.1 °F30.9 °F92 %29.68 in10.0 miCalm0.00 inOvercast
2:11 AM33.8 °F30.2 °F87 %29.66 in10.0 miCalmOvercast
2:25 AM33.8 °F30.2 °F87 %29.67 in10.0 miCalmOvercast
2:35 AM33.8 °F30.2 °F87 %29.69 in10.0 miSW (230°)4.6 mphOvercast
2:46 AM33.8 °F30.2 °F87 %29.68 in10.0 miCalmOvercast
2:54 AM33.1 °F30.9 °F92 %29.71 in10.0 miSW (230°)3.5 mphOvercast
3:50 AM33.8 °F30.2 °F87 %29.71 in10.0 miWSW (240°)4.6 mphOvercast
3:54 AM33.1 °F30.9 °F92 %29.73 in10.0 miWSW (240°)5.8 mphOvercast
4:17 AM33.8 °F30.2 °F87 %29.72 in4.0 miWSW (250°)5.8 mphOvercast
4:54 AM33.1 °F32.0 °F96 %29.77 in2.5 miWSW (250°)4.6 mphOvercast
5:21 AM33.8 °F32.0 °F93 %29.75 in3.0 miWSW (250°)5.8 mphOvercast
5:43 AM33.8 °F32.0 °F93 %29.76 in7.0 miWSW (250°)4.6 mphOvercast
5:54 AM33.1 °F32.0 °F96 %29.79 in10.0 miWSW (250°)5.8 mphOvercast
6:54 AM33.1 °F30.9 °F92 %29.84 in10.0 miWSW (250°)10.4 mphOvercast
7:54 AM33.1 °F30.0 °F89 %29.88 in2.0 miWest (260°)9.2 mph0.00 inSnowBlowing Snow
8:08 AM33.8 °F30.2 °F87 %29.86 in6.0 miWest (260°)12.7 mph0.01 inOvercast
8:54 AM34.0 °F28.9 °F82 %29.91 in10.0 miWest (260°)15.0 mph21.9 mph0.01 inOvercast
9:54 AM34.0 °F28.9 °F82 %29.92 in10.0 miWest (270°)13.8 mph19.6 mphOvercast
10:54 AM34.0 °F28.9 °F82 %29.96 in10.0 miWSW (250°)15.0 mphOvercast
11:54 AM34.0 °F28.9 °F82 %29.98 in10.0 miWest (270°)8.1 mphOvercast
12:20 PM33.8 °F28.4 °F81 %29.96 in10.0 miWest (270°)10.4 mphOvercast
12:47 PM33.8 °F28.4 °F81 %29.98 in10.0 miWest (270°)11.5 mphOvercast
12:54 PM33.1 °F28.0 °F82 %30.01 in9.0 miWest (270°)13.8 mph20.7 mphOvercast
1:13 PM33.8 °F28.4 °F81 %29.98 in9.0 miWest (280°)11.5 mphOvercast
1:54 PM33.1 °F28.0 °F82 %30.02 in8.0 miWNW (290°)8.1 mphOvercast
2:54 PM32.0 °F28.0 °F85 %30.05 in9.0 miWest (280°)16.1 mphOvercast
3:54 PM32.0 °F28.0 °F85 %30.07 in6.0 miWest (280°)11.5 mphOvercast
4:54 PM30.9 °F26.1 °F82 %30.12 in10.0 miWNW (300°)11.5 mph20.7 mphOvercast
5:54 PM30.9 °F26.1 °F82 %30.15 in10.0 miWNW (300°)12.7 mphOvercast
6:54 PM30.0 °F26.1 °F85 %30.18 in10.0 miWest (280°)12.7 mphOvercast
7:54 PM28.9 °F24.1 °F82 %30.22 in10.0 miWNW (290°)16.1 mphOvercast
8:54 PM28.9 °F24.1 °F82 %30.23 in10.0 miWNW (300°)12.7 mphOvercast
9:54 PM28.0 °F21.9 °F78 %30.26 in10.0 miWNW (290°)13.8 mph19.6 mphOvercast
10:54 PM28.0 °F21.0 °F75 %30.30 in10.0 miWNW (290°)12.7 mphOvercast
11:54 PM27.0 °F21.0 °F78 %30.32 in10.0 miNW (310°)12.7 mphOvercast
Hourly data recorded from KSUS, located miles away from St. Louis, Missouri







STORIES FROM OUR PARTNERS